Orbital elements:
    C/2002 T7 (LINEAR)
T 2004 Apr. 23.685 TT                                   MPC
q   0.61523              (2000.0)            P               Q
                   Peri.  157.770       +0.434039       -0.837861
                   Node    94.865       -0.868469       -0.291439
e   1.0            Incl.  160.594       -0.239524       -0.461576
From 88 observations 2002 Oct. 12-29.

Ephemeris:
    C/2002 T7 (LINEAR)
Date    TT    R. A. (2000) Decl.     Delta      r     Elong.  Phase   m1    m2
2002 10 23    06 00.74   +28 00.3    6.273    6.813   119.1     7.3  16.3
2002 11 02    05 55.83   +28 12.1    6.041    6.724   130.1     6.5  16.2
2002 11 12    05 49.50   +28 22.9    5.831    6.634   141.4     5.3  16.0
2002 11 22    05 41.86   +28 31.5    5.648    6.544   153.0     3.9  15.9
2002 12 02    05 33.10   +28 37.0    5.497    6.453   164.6     2.3  15.8
2002 12 12    05 23.53   +28 38.5    5.381    6.361   174.1     0.9  15.7
2002 12 22    05 13.57   +28 35.4    5.303    6.269   168.4     1.8  15.6
2003 01 01    05 03.67   +28 27.9    5.261    6.177   156.8     3.6  15.5
2003 01 11    04 54.29   +28 16.7    5.254    6.084   144.8     5.3  15.4
2003 01 21    04 45.85   +28 03.0    5.277    5.990   132.9     6.9  15.4
2003 01 31    04 38.63   +27 48.4    5.325    5.895   121.2     8.2  15.3
2003 02 10    04 32.84   +27 34.2    5.391    5.800   109.8     9.2  15.3
2003 02 20    04 28.55   +27 21.8    5.469    5.704    98.8     9.9  15.3
2003 03 02    04 25.77   +27 12.0    5.552    5.608    88.1    10.2  15.2
2003 03 12    04 24.42   +27 05.3    5.633    5.511    77.9    10.2  15.2
2003 03 22    04 24.40   +27 01.9    5.707    5.412    67.9     9.8  15.1
2003 04 01    04 25.57   +27 01.9    5.770    5.314    58.3     9.2  15.1
2003 04 11    04 27.80   +27 05.0    5.815    5.214    49.1     8.3  15.0
2003 04 21    04 30.96   +27 10.8    5.841    5.113    40.1     7.3  14.9
2003 05 01    04 34.90   +27 19.2    5.845    5.012    31.3     6.0  14.8

Brian G. Marsden             (C) Copyright 2002 MPC           M.P.E.C. 2002-U43

Read MPEC 2002-U42 Read MPEC 2002-U44


MPEC number:

Enter an
MPEC number in one of the following forms:
  • 1997-B01 (the full form)
  • J97B01 (the packed version of the full form)
  • B01 (the abbreviated form)

